Home > Weather > Tours > Past weeks

Flag for France Weather for the Past 2 Weeks in Tours, France

Now
39 °F

Clear.


Feels Like: 34 °F
Forecast: 33 / 45 °F
Wind: 7 mph from Southwest

Location: Tours Airport

Current Time: Feb 10, 2016 at 10:00:49 PM

Latest Report: Feb 10, 2016 at 9:30 PM


Visibility: 10 mi

Pressure: 29.74 "Hg

Humidity: 81%

Dew point: 34 °F

Location of ToursLocation

Historic Weather in Tours — Graph

°F

Tours Temperature Yesterday

Maximum temperature yesterday: 55 °F (at 11:30 AM)
Minimum temperature yesterday: 39 °F (at 4:30 PM)
Average temperature yesterday: 46 °F

High & Low Weather Summary for the Past Weeks

 TemperatureHumidityPressure
High59 °F (Feb 6, 3:30 PM)100% (Jan 28, 3:30 AM)30.57 "Hg (Jan 28, 3:30 AM)
Low32 °F (Jan 29, 7:30 AM)51% (Feb 6, 3:30 PM)29.24 "Hg (Feb 9, 11:00 AM)
Average48 °F86%30.08 "Hg
* Reported Jan 26 9:00 PM — Feb 10 9:00 PM, Tours, Weather by CustomWeather, © 2016

Note: Actual official high and low records may vary slightly from our data, if they occured in-between our weather recording intervals... More about our weather records

Advertising

Tours Weather History for the Previous 24 Hours

 ConditionsComfort  
Time TempWeatherWind HumidityBarometerVisibility
9:00 PM
Wed, Feb 10
39 °FClear.6 mph81%29.74 "Hg10 mi
8:30 PM39 °FClear.6 mph81%29.71 "Hg10 mi
8:00 PM39 °FClear.5 mph81%29.71 "Hg10 mi
7:30 PM41 °FClear.6 mph70%29.71 "Hg10 mi
7:00 PM41 °FClear.6 mph70%29.71 "Hg10 mi
6:30 PM43 °FClear.9 mph66%29.68 "Hg10 mi
6:00 PM45 °FSunny.9 mph61%29.68 "Hg10 mi
5:30 PM46 °FPassing clouds.10 mph57%29.65 "HgN/A
5:00 PM46 °FPassing clouds.10 mph57%29.65 "HgN/A
4:30 PM46 °FScattered clouds.13 mph53%29.65 "HgN/A
4:00 PM46 °FPartly sunny.12 mph57%29.65 "HgN/A
3:30 PM45 °FPassing clouds.14 mph61%29.65 "HgN/A
3:00 PM46 °FSunny.12 mph62%29.65 "Hg10 mi
2:30 PM45 °FScattered clouds.13 mph61%29.65 "HgN/A
2:00 PM46 °FPartly sunny.13 mph62%29.65 "HgN/A
1:30 PM45 °FScattered clouds.14 mph66%29.65 "HgN/A
1:00 PM46 °FPartly sunny.15 mph62%29.65 "HgN/A
12:30 PM45 °FPartly sunny.14 mph66%29.65 "HgN/A
12:00 PM45 °FBroken clouds.13 mph71%29.65 "HgN/A
11:30 AM43 °FScattered clouds.13 mph76%29.65 "HgN/A
11:00 AM43 °FPassing clouds.10 mph76%29.65 "HgN/A
10:30 AM41 °FSunny.10 mph76%29.65 "Hg10 mi
10:00 AM39 °FSunny.9 mph81%29.65 "Hg10 mi
9:30 AM37 °FPassing clouds.10 mph81%29.65 "HgN/A
9:00 AM37 °FSunny.12 mph81%29.65 "Hg10 mi
8:30 AM37 °FSunny.10 mph81%29.65 "Hg10 mi
8:00 AM37 °FClear.9 mph81%29.65 "Hg10 mi
7:30 AM37 °FClear.10 mph81%29.65 "Hg10 mi
7:00 AM37 °FClear.12 mph87%29.62 "Hg10 mi
6:30 AM37 °FClear.13 mph81%29.62 "Hg10 mi
6:00 AM37 °FClear.12 mph87%29.62 "Hg10 mi
5:30 AM37 °FClear.12 mph87%29.62 "Hg10 mi
5:00 AM37 °FClear.15 mph87%29.62 "Hg10 mi
4:30 AM37 °FClear.13 mph87%29.62 "Hg10 mi
4:00 AM37 °FClear.12 mph87%29.62 "Hg10 mi
3:30 AM37 °FClear.13 mph81%29.62 "Hg10 mi
3:00 AM39 °FPassing clouds.15 mph75%29.62 "HgN/A
2:30 AM37 °FPassing clouds.14 mph81%29.59 "HgN/A
1:30 AM37 °FClear.14 mph81%29.59 "Hg10 mi
1:00 AM37 °FClear.13 mph81%29.59 "Hg10 mi
12:30 AM37 °FClear.12 mph81%29.59 "Hg10 mi
12:00 AM39 °FClear.14 mph75%29.56 "Hg10 mi
11:30 PM
Tue, Feb 9
39 °FClear.14 mph75%29.56 "Hg10 mi
10:30 PM39 °FClear.14 mph75%29.53 "Hg10 mi
10:00 PM39 °FClear.13 mph75%29.53 "Hg10 mi
Weather by CustomWeather, © 2016

See weather overviewHow to use our weather pages